SCP
0 1 2 1 1 1 1 0 0 0 0 0 0 0 0 0 0 0 0 0 0 0 0 0 0 0 0 0 0 0 0 0
-0 1 4 3 1 1 0 0 0 0 0 0 0 0 0 0 0 0 0 0 0 0 0 0 0 0 0 0 0 0 0 0
-0 1 2 2 1 1 0 0 0 0 0 0 0 0 0 0 0 0 0 0 0 0 0 0 0 0 0 0 0 0 0 0
-0 0 1 2 1 0 0 0 0 0 0 0 0 0 0 0 0 0 0 0 0 0 0 0 0 0 0 0 0 0 0 0
0 0 1 2 1 1 0 0 0 0 0 0 0 0 0 0 0 0 0 0 0 0 0 0 0 0 0 0 0 0 0 0
0 0 1 1 1 0 0 0 0 0 0 0 0 0 0 0 0 0 0 0 0 0 0 0 0 0 0 0 0 0 0 0
0 0 0 0 0 0 0 0 0 0 0 0 0 0 0 0 -0 -0 -0 0 0 0 0 0 -0 -0 0 0 0 0 0 0
2 0 0 0 0 0 0 0 0 0 -0 -0 0 -0 -0 0 0 0 -0 -0 0 0 0 0 -0 -0 0 0 0 0 -0 -0
1 0 0 -0 0 0 0 0 -0 -0 -0 -0 0 -0 -0 0 0 0 -0 -0 0 0 0 0 -0 -0 -0 0 -0 0 0 -0
1 0 -0 0 0 0 0 -0 -0 -0 -0 0 -0 -0 -0 -0 0 0 -0 0 -0 0 0 0 -0 -0 -0 -0 -0 -0 0 -0
0 0 0 0 0 -0 0 0 -0 0 0 -0 -0 -0 0 -0 -0 0 0 0 0 0 0 0 -0 -0 -0 -0 -0 -0 -0 0
0 0 0 0 0 -0 -0 -0 -0 0 -0 -0 -0 -0 -0 -0 -0 0 0 -0 0 0 0 0 0 -0 -0 -0 0 0 -0 0
1 0 0 0 0 0 -0 -0 -0 -0 -0 0 -0 -0 -0 -0 -0 0 0 0 0 0 0 0 -0 -0 0 0 0 0 0 0
0 0 0 0 0 -0 -0 0 -0 -0 -0 0 0 -0 -0 -0 -0 -0 -0 -0 0 0 0 0 0 -0 -0 -0 -0 -0 -0 -0
0 0 0 0 0 -0 -0 -0 -0 -0 0 0 0 -0 -0 -0 -0 -0 0 0 -0 0 0 -0 -0 -0 -0 -0 -0 -0 0 0
0 0 0 0 -0 0 -0 -0 -0 0 -0 0 -0 -0 -0 -0 -0 -0 0 0 0 0 0 -0 -0 -0 -0 0 0 0 0 0
1 0 -0 -0 0 0 -0 -0 -0 -0 0 -0 0 -0 -0 -0 -0 0 0 0 0 0 0 0 0 -0 0 0 -0 -0 -0 0
0 0 0 0 1 0 -0 0 -0 -0 -0 0 0 -0 -0 -0 -0 0 0 0 -0 -0 -0 0 -0 -0 -0 -0 -0 0 0 0
0 0 0 0 0 0 0 0 -0 -0 0 0 0 0 -0 -0 0 0 0 -0 -0 -0 0 0 0 -0 -0 -0 0 0 0 0
0 0 0 0 0 0 0 0 0 0 0 0 0 -0 -0 0 0 -0 0 0 0 0 0 0 -0 0 -0 -0 -0 -0 -0 -0
Wind_Speed_500mb
6 9 19 31 38 43 45 48 49 46 46 47 46 45 42 40 36 31 29 27 27 24 22 19 17 14 13 12 16 24 28 31
12 7 3 22 42 47 50 49 47 47 45 46 45 42 38 35 32 30 28 28 26 24 23 17 11 8 10 14 19 21 21 25
15 12 6 33 41 47 48 47 47 47 46 43 40 37 34 32 32 31 30 27 26 23 17 13 10 7 11 12 4 7 17 23
10 23 20 20 43 49 48 48 47 45 42 39 37 35 34 32 34 35 31 30 27 22 16 13 9 8 4 4 8 5 3 8
9 31 34 32 49 48 49 48 45 42 39 38 36 34 32 36 34 31 31 28 25 22 16 8 8 5 4 8 13 11 8 15
16 35 45 52 37 47 47 45 42 40 38 37 33 31 29 31 31 33 31 25 23 21 18 13 7 7 8 13 16 10 10 15
17 42 49 52 50 49 46 44 42 39 37 33 30 29 31 34 34 35 26 24 21 21 18 15 10 9 8 11 8 5 10 13
18 46 54 62 51 49 46 43 41 38 36 34 28 30 33 33 34 29 27 22 20 19 18 15 13 8 7 12 12 9 5 9
13 51 52 58 53 49 44 43 39 40 34 28 27 27 26 33 32 30 27 23 20 21 19 14 15 8 13 14 22 13 13 9
36 51 57 55 51 47 45 42 41 37 33 31 28 30 31 29 28 24 23 24 22 21 17 18 13 11 13 13 21 19 12 16
50 49 56 53 50 48 47 43 40 40 33 31 30 30 28 29 27 27 25 23 23 23 21 17 17 16 15 17 25 19 18 20
49 52 57 53 49 47 46 44 42 37 38 34 33 32 29 24 21 23 21 23 23 23 23 21 22 21 19 19 27 17 17 24
46 58 54 51 49 49 48 46 41 44 38 36 34 29 24 18 18 14 13 20 23 22 22 20 24 27 22 24 28 26 19 30
38 56 52 51 51 51 48 44 43 40 41 36 36 27 22 21 16 16 15 13 23 22 22 21 20 18 26 24 36 30 30 34
43 50 52 52 51 52 47 43 41 38 39 36 30 24 23 21 24 17 16 19 22 25 27 24 15 29 28 27 29 33 33 33
55 53 52 51 50 50 48 43 41 37 34 32 26 27 18 21 24 20 18 17 19 23 22 19 25 33 29 29 31 40 35 24
45 56 52 49 47 44 44 43 40 36 33 31 23 25 30 22 28 25 21 20 23 22 27 28 33 32 27 34 31 30 27 19
52 44 44 44 43 27 35 38 38 36 31 28 22 28 22 21 29 26 22 25 24 21 21 29 37 35 34 35 33 28 24 17
47 55 54 49 52 34 22 24 39 38 36 30 21 25 24 26 26 27 25 27 34 25 23 21 30 26 29 37 28 28 26 19
35 34 37 32 34 52 47 38 39 33 36 33 29 29 26 25 25 23 27 34 34 36 25 23 30 29 19 21 20 19 20 21
Wind_Direction_500mb
47 156 171 166 159 157 157 157 154 153 148 145 143 144 146 144 147 153 159 162 163 166 169 176 189 201 241 235 241 245 230 231
93 163 132 138 154 153 153 151 149 148 148 147 145 145 146 148 152 154 158 159 157 162 175 169 185 203 232 234 253 247 227 239
110 169 101 144 154 151 148 146 147 148 147 147 145 146 148 151 152 156 156 156 165 168 153 164 178 226 233 251 213 246 232 243
93 162 165 138 148 154 148 148 148 149 148 147 145 146 149 153 158 157 154 166 156 153 159 170 186 209 238 215 183 186 217 170
330 174 169 157 157 149 151 149 150 148 146 145 148 151 158 159 158 158 162 158 161 157 145 183 157 159 134 133 133 135 147 138
308 183 168 166 166 157 152 153 151 148 148 149 151 157 163 159 161 162 163 163 166 150 140 140 152 126 113 130 132 166 172 156
258 189 168 166 167 159 155 155 153 153 154 155 158 160 159 159 159 168 160 164 153 141 140 138 129 126 117 118 113 188 169 168
293 176 163 164 167 158 159 159 158 160 153 146 159 162 159 162 166 164 166 165 150 146 137 139 133 129 107 97 96 93 121 160
212 167 162 164 161 160 162 160 165 147 143 154 156 160 165 164 168 173 165 166 160 150 140 143 129 134 91 90 116 115 114 101
181 166 169 161 160 161 160 164 151 146 157 157 152 155 161 163 169 166 167 170 160 169 151 141 140 133 111 109 132 141 114 141
178 172 155 159 162 164 161 159 148 150 161 148 153 157 159 167 167 171 175 174 177 176 159 156 158 154 137 131 145 131 124 124
168 159 161 159 163 165 164 157 150 156 150 150 150 151 152 160 176 177 187 183 181 181 168 169 162 168 150 143 149 144 132 140
170 165 158 160 163 164 164 160 153 157 149 153 153 149 150 148 158 154 175 186 181 180 174 170 171 171 160 148 150 137 144 142
180 156 159 161 161 163 163 162 157 155 152 162 161 156 154 146 135 140 146 156 170 175 169 164 167 178 164 155 155 159 140 129
164 153 159 160 161 162 163 161 157 160 161 161 159 156 152 160 146 142 137 144 162 180 172 176 183 162 164 156 157 152 147 126
158 154 155 158 161 162 164 162 160 161 165 158 167 151 146 153 146 149 139 138 144 155 166 170 152 159 160 159 154 159 156 144
112 147 149 153 158 159 166 166 164 167 159 170 175 152 145 139 152 142 148 135 140 149 153 154 154 156 156 159 159 160 169 174
121 119 111 106 125 142 169 170 174 172 175 177 185 150 140 141 151 149 145 142 139 145 151 170 159 156 158 162 160 165 180 179
125 132 147 152 152 147 151 142 178 181 179 182 179 166 155 152 147 157 138 140 142 149 150 177 168 155 166 170 167 178 183 188
130 139 149 161 174 163 164 158 175 180 181 172 179 168 161 157 146 151 160 152 150 144 139 137 141 144 158 170 169 174 175 179
Wind_Speed_850mb
6 9 19 31 38 43 45 48 49 46 46 47 46 45 42 40 36 31 29 27 27 24 22 19 17 14 13 12 16 24 28 31
12 7 3 22 42 47 50 49 47 47 45 46 45 42 38 35 32 30 28 28 26 24 23 17 11 8 10 14 19 21 21 25
15 12 6 33 41 47 48 47 47 47 46 43 40 37 34 32 32 31 30 27 26 23 17 13 10 7 11 12 4 7 17 23
10 23 20 20 43 49 48 48 47 45 42 39 37 35 34 32 34 35 31 30 27 22 16 13 9 8 4 4 8 5 3 8
9 31 34 32 49 48 49 48 45 42 39 38 36 34 32 36 34 31 31 28 25 22 16 8 8 5 4 8 13 11 8 15
16 35 45 52 37 47 47 45 42 40 38 37 33 31 29 31 31 33 31 25 23 21 18 13 7 7 8 13 16 10 10 15
17 42 49 52 50 49 46 44 42 39 37 33 30 29 31 34 34 35 26 24 21 21 18 15 10 9 8 11 8 5 10 13
18 46 54 62 51 49 46 43 41 38 36 34 28 30 33 33 34 29 27 22 20 19 18 15 13 8 7 12 12 9 5 9
13 51 52 58 53 49 44 43 39 40 34 28 27 27 26 33 32 30 27 23 20 21 19 14 15 8 13 14 22 13 13 9
36 51 57 55 51 47 45 42 41 37 33 31 28 30 31 29 28 24 23 24 22 21 17 18 13 11 13 13 21 19 12 16
50 49 56 53 50 48 47 43 40 40 33 31 30 30 28 29 27 27 25 23 23 23 21 17 17 16 15 17 25 19 18 20
49 52 57 53 49 47 46 44 42 37 38 34 33 32 29 24 21 23 21 23 23 23 23 21 22 21 19 19 27 17 17 24
46 58 54 51 49 49 48 46 41 44 38 36 34 29 24 18 18 14 13 20 23 22 22 20 24 27 22 24 28 26 19 30
38 56 52 51 51 51 48 44 43 40 41 36 36 27 22 21 16 16 15 13 23 22 22 21 20 18 26 24 36 30 30 34
43 50 52 52 51 52 47 43 41 38 39 36 30 24 23 21 24 17 16 19 22 25 27 24 15 29 28 27 29 33 33 33
55 53 52 51 50 50 48 43 41 37 34 32 26 27 18 21 24 20 18 17 19 23 22 19 25 33 29 29 31 40 35 24
45 56 52 49 47 44 44 43 40 36 33 31 23 25 30 22 28 25 21 20 23 22 27 28 33 32 27 34 31 30 27 19
52 44 44 44 43 27 35 38 38 36 31 28 22 28 22 21 29 26 22 25 24 21 21 29 37 35 34 35 33 28 24 17
47 55 54 49 52 34 22 24 39 38 36 30 21 25 24 26 26 27 25 27 34 25 23 21 30 26 29 37 28 28 26 19
35 34 37 32 34 52 47 38 39 33 36 33 29 29 26 25 25 23 27 34 34 36 25 23 30 29 19 21 20 19 20 21
Wind_Direction_850mb
47 156 171 166 159 157 157 157 154 153 148 145 143 144 146 144 147 153 159 162 163 166 169 176 189 201 241 235 241 245 230 231
93 163 132 138 154 153 153 151 149 148 148 147 145 145 146 148 152 154 158 159 157 162 175 169 185 203 232 234 253 247 227 239
110 169 101 144 154 151 148 146 147 148 147 147 145 146 148 151 152 156 156 156 165 168 153 164 178 226 233 251 213 246 232 243
93 162 165 138 148 154 148 148 148 149 148 147 145 146 149 153 158 157 154 166 156 153 159 170 186 209 238 215 183 186 217 170
330 174 169 157 157 149 151 149 150 148 146 145 148 151 158 159 158 158 162 158 161 157 145 183 157 159 134 133 133 135 147 138
308 183 168 166 166 157 152 153 151 148 148 149 151 157 163 159 161 162 163 163 166 150 140 140 152 126 113 130 132 166 172 156
258 189 168 166 167 159 155 155 153 153 154 155 158 160 159 159 159 168 160 164 153 141 140 138 129 126 117 118 113 188 169 168
293 176 163 164 167 158 159 159 158 160 153 146 159 162 159 162 166 164 166 165 150 146 137 139 133 129 107 97 96 93 121 160
212 167 162 164 161 160 162 160 165 147 143 154 156 160 165 164 168 173 165 166 160 150 140 143 129 134 91 90 116 115 114 101
181 166 169 161 160 161 160 164 151 146 157 157 152 155 161 163 169 166 167 170 160 169 151 141 140 133 111 109 132 141 114 141
178 172 155 159 162 164 161 159 148 150 161 148 153 157 159 167 167 171 175 174 177 176 159 156 158 154 137 131 145 131 124 124
168 159 161 159 163 165 164 157 150 156 150 150 150 151 152 160 176 177 187 183 181 181 168 169 162 168 150 143 149 144 132 140
170 165 158 160 163 164 164 160 153 157 149 153 153 149 150 148 158 154 175 186 181 180 174 170 171 171 160 148 150 137 144 142
180 156 159 161 161 163 163 162 157 155 152 162 161 156 154 146 135 140 146 156 170 175 169 164 167 178 164 155 155 159 140 129
164 153 159 160 161 162 163 161 157 160 161 161 159 156 152 160 146 142 137 144 162 180 172 176 183 162 164 156 157 152 147 126
158 154 155 158 161 162 164 162 160 161 165 158 167 151 146 153 146 149 139 138 144 155 166 170 152 159 160 159 154 159 156 144
112 147 149 153 158 159 166 166 164 167 159 170 175 152 145 139 152 142 148 135 140 149 153 154 154 156 156 159 159 160 169 174
121 119 111 106 125 142 169 170 174 172 175 177 185 150 140 141 151 149 145 142 139 145 151 170 159 156 158 162 160 165 180 179
125 132 147 152 152 147 151 142 178 181 179 182 179 166 155 152 147 157 138 140 142 149 150 177 168 155 166 170 167 178 183 188
130 139 149 161 174 163 164 158 175 180 181 172 179 168 161 157 146 151 160 152 150 144 139 137 141 144 158 170 169 174 175 179